Location: Gilevgi
(36.8751°N, 30.0581°E)
Time: 17:42:00
(UTC+00:00)

Cosmos 1933 - Pass Details

Date: 11 December 2025
Orbit: 510 x 517 km, 82.5° (Epoch: 15 January)

Event Time Altitude Azimuth Distance (km) Brightness Sun altitude
Rises 15:16:21 0° 180° (S) 2,623 7.1 -6.7°
Reaches altitude 10° 15:18:29 10° 177° (S) 1,739 6.2 -7.1°
Maximum altitude 15:22:16 66° 95° (E) 565 3.2 -7.8°
Drops below altitude 10° 15:26:04 10° 13° (NNE) 1,749 5.5 -8.5°
Sets 15:28:13 0° 10° (N) 2,639 6.5 -8.9°
